This is the latest recevied weather packets stored in our database for station/object S51FO-6. If no packets are shown the sender has not sent any weather packets the latest 10 day(s).
| Time | Temp. | Humidity | Pressure | Rain* | Wind** | Luminosity | Snow |
|---|---|---|---|---|---|---|---|
| 1787754579 | 23.89° C | 40% | - | 0 mm | - | - | - |
| 1787752782 | 24.44° C | 40% | - | 0 mm | - | - | - |
| 1787752179 | 24.44° C | 40% | - | 0 mm | - | - | - |
| 1787751579 | 23.33° C | 43% | - | 0 mm | - | - | - |
| 1787750991 | 23.89° C | 41% | - | 0 mm | - | - | - |
| 1787750379 | 24.44° C | 36% | - | 0 mm | - | - | - |
| 1787747979 | 24.44° C | 37% | - | 0 mm | - | - | - |
| 1787747382 | 23.89° C | 39% | - | 0 mm | - | - | - |
| 1787746779 | 25° C | 39% | - | 0 mm | - | - | - |
| 1787746240 | 24.44° C | 39% | - | 0 mm | - | - | - |
| 1787746179 | 24.44° C | 39% | - | 0 mm | - | - | - |
| 1787745579 | 23.89° C | 43% | - | 0 mm | - | - | - |
| 1787743782 | 25° C | 43% | - | 0 mm | - | - | - |
| 1787743184 | 24.44° C | 46% | - | 0 mm | - | - | - |
| 1787742579 | 25° C | 45% | - | 0 mm | - | - | - |
| 1787741981 | 23.89° C | 43% | - | 0 mm | - | - | - |
| 1787741381 | 23.89° C | 50% | - | 0 mm | - | - | - |
| 1787740787 | 23.89° C | 48% | - | 0 mm | - | - | - |
| 1787740187 | 23.33° C | 48% | - | 0 mm | - | - | - |
| 1787738381 | 22.78° C | 47% | - | 0 mm | - | - | - |
| 1787736587 | 23.89° C | 43% | - | 0 mm | - | - | - |
| 1787735981 | 23.33° C | 42% | - | 0 mm | - | - | - |
| 1787734784 | 22.78° C | 40% | - | 0 mm | - | - | - |
| 1787733584 | 21.67° C | 48% | - | 0 mm | - | - | - |
| 1787732990 | 21.67° C | 44% | - | 0 mm | - | - | - |
* Rain latest hour (hover to see other rain measurements)
** Current wind speed in m/s (hover to see current wind gust speed)